Temperature
18 18 18 18 18 18 18 18 18 18 18 18 18 18 18 18 18 18 18 18 18 18 17 17 17 17 17 17 17 17 17 17 17 17 17 17 17 17 17 16 16 16 16
17 17 17 18 18 18 18 18 18 18 18 18 18 18 17 18 17 17 17 18 18 18 18 17 18 17 17 17 17 17 17 17 17 17 17 17 17 17 16 16 16 16 16
17 17 17 18 18 18 18 18 18 18 18 18 18 17 18 17 17 17 17 17 17 18 17 17 17 17 17 17 17 17 17 17 17 17 17 17 17 16 16 16 16 16 16
17 17 17 17 17 18 18 18 18 18 18 18 18 18 18 17 17 17 17 17 17 17 17 17 17 17 17 17 17 17 17 17 17 17 16 16 16 16 16 16 16 16 16
17 17 17 17 17 17 18 18 18 18 18 18 18 18 18 18 17 17 17 17 17 17 17 17 17 17 17 17 17 17 17 17 17 16 16 16 16 16 16 16 16 16 16
17 17 17 17 17 17 17 17 17 17 17 18 18 18 18 18 18 18 17 17 17 17 17 17 17 17 17 17 17 17 17 17 16 16 16 16 16 16 16 16 16 16 16
17 17 17 17 17 17 17 17 17 17 17 17 18 18 18 18 18 18 17 17 17 17 17 17 17 17 17 17 17 17 17 17 16 16 16 16 16 16 16 16 16 16 16
17 17 17 17 17 17 17 17 17 17 17 17 18 18 18 18 18 18 18 17 17 17 17 17 17 17 17 17 16 17 17 16 16 16 16 16 16 16 16 16 16 16 16
17 17 17 17 17 17 17 17 17 17 17 17 17 18 18 19 18 18 18 17 17 17 17 17 17 17 17 16 16 16 17 17 16 16 16 16 16 16 16 16 16 16 16
17 17 17 17 17 17 17 17 17 17 17 17 17 17 17 18 18 18 18 18 17 17 17 17 17 17 16 16 16 16 16 16 16 16 16 16 16 16 16 16 16 15 15
16 17 17 17 16 16 16 17 17 17 17 17 17 17 17 17 17 17 18 18 17 17 17 17 17 17 16 16 16 16 16 16 16 16 16 16 16 16 16 16 16 15 15
16 17 16 17 16 16 16 16 16 16 16 17 17 17 17 17 17 17 17 17 17 17 17 17 17 16 16 16 16 16 16 16 16 16 16 16 16 16 16 16 15 15 15
17 17 17 17 16 16 16 16 16 16 16 16 16 16 17 17 17 17 17 17 17 17 17 17 16 16 16 16 16 16 16 16 16 16 16 16 16 16 15 15 15 15 15
16 16 16 16 16 16 16 16 16 16 16 16 16 16 16 16 16 16 17 17 17 17 17 17 16 16 16 16 16 16 16 16 16 16 16 16 16 15 15 15 15 15 15
16 16 16 16 16 16 16 16 16 16 16 16 16 16 16 16 16 16 16 16 17 17 17 16 16 16 16 16 16 15 15 16 16 16 16 15 15 15 15 15 15 15 15
16 16 16 16 16 16 16 16 16 16 16 16 16 16 16 16 16 15 16 16 16 16 17 16 16 16 15 15 15 15 15 15 15 15 15 15 15 15 15 15 15 15 15
16 16 16 16 16 16 16 16 16 15 15 15 15 15 16 16 15 15 15 15 15 15 15 15 15 15 15 15 15 15 15 15 15 15 15 15 15 15 15 15 15 15 15
16 15 15 15 15 15 15 15 15 15 15 15 15 15 15 15 15 15 15 15 15 15 15 15 15 15 14 14 14 14 14 15 15 15 15 15 15 15 15 15 15 15 15
16 15 15 15 15 15 15 15 15 15 15 15 15 15 15 15 15 15 15 15 15 15 14 15 14 14 14 14 14 14 14 14 14 14 14 14 14 14 14 14 15 14 14
15 15 15 15 15 15 15 15 15 15 15 15 14 14 14 14 14 14 14 14 14 14 14 14 14 14 14 14 13 14 14 14 14 14 14 14 14 14 14 14 14 14 14
15 15 15 14 14 14 14 15 15 14 14 14 14 14 14 14 14 14 14 14 14 14 14 14 14 14 14 13 13 13 14 14 14 14 14 14 14 14 14 14 14 14 14
14 14 14 14 14 14 14 15 14 14 14 14 14 14 14 14 14 14 14 14 14 13 13 13 14 14 13 13 13 13 13 13 13 13 13 13 13 13 13 13 14 14 13
14 14 14 14 14 14 14 14 14 14 14 14 14 14 14 14 14 14 14 14 14 14 13 13 13 13 13 13 13 13 13 13 13 13 13 13 13 13 13 13 13 13 13
14 14 14 14 14 14 14 14 14 14 14 13 13 13 13 13 13 13 13 13 13 13 13 13 13 13 13 13 13 13 13 13 13 13 13 12 13 13 13 13 13 13 13
14 14 14 14 14 14 14 14 14 13 13 13 13 13 13 13 13 13 13 13 13 13 13 13 13 13 13 13 13 12 12 12 12 13 12 12 12 12 12 12 12 12 12
14 14 14 14 14 14 14 14 14 13 13 13 13 13 13 13 13 13 13 12 12 13 13 13 13 13 13 12 12 12 12 12 12 13 12 12 12 12 12 12 12 12 12
Wind_Speed
1 2 1 1 1 1 1 1 1 1 0 1 1 1 1 0 1 1 3 7 5 5 5 5 5 5 6 7 8 9 8 8 9 9 11 11 11 11 12 12 12 12 12
1 1 1 1 1 1 1 1 0 0 0 0 0 0 0 1 1 1 2 5 7 6 5 5 5 5 5 6 7 7 8 9 9 9 9 9 10 10 11 11 11 11 12
1 0 1 0 1 1 0 1 1 1 1 1 1 1 1 1 1 1 2 2 4 7 6 5 4 5 4 5 6 6 7 8 9 9 9 9 9 9 10 10 10 10 10
1 1 1 1 1 1 1 1 1 1 1 1 1 1 1 1 2 2 2 2 1 2 6 7 5 4 4 4 5 6 7 7 8 8 9 10 10 10 10 10 10 10 10
2 2 1 1 2 1 1 2 1 1 1 1 1 2 2 2 3 3 2 2 2 2 3 7 7 6 5 5 5 6 7 7 9 9 9 10 10 10 10 11 11 11 11
2 3 3 2 3 2 1 1 2 2 2 2 2 1 2 3 3 3 3 3 3 4 4 3 5 7 7 6 6 5 6 7 8 8 9 10 10 10 10 10 11 11 11
3 3 3 2 3 2 2 2 2 2 3 2 2 2 2 3 3 4 4 3 3 4 4 3 4 3 4 7 6 5 5 6 7 9 10 10 10 10 10 10 11 11 11
4 3 3 4 3 2 3 3 3 3 2 2 2 3 2 3 3 4 4 4 4 4 3 4 3 3 3 3 6 8 6 6 7 8 9 9 9 10 10 10 11 11 11
3 4 4 4 3 4 3 3 4 4 3 3 3 3 3 2 1 3 3 3 3 3 3 3 4 3 4 4 3 7 7 6 6 8 8 9 9 9 10 11 11 11 11
4 4 4 4 4 4 3 4 3 4 4 4 3 3 4 3 3 2 3 3 3 3 3 3 3 4 5 4 4 3 6 6 7 7 8 9 10 10 10 11 11 11 12
4 4 4 4 4 4 4 4 4 4 4 5 4 3 3 4 5 4 3 3 3 3 3 3 3 3 3 4 4 4 6 6 6 7 7 9 10 10 11 11 12 12 12
3 3 4 4 4 4 4 4 4 5 4 5 5 4 4 4 4 4 4 4 4 3 3 3 3 3 3 4 3 4 5 6 6 6 7 8 9 9 9 10 11 12 12
3 3 3 3 4 4 4 4 4 5 5 5 5 4 4 5 4 4 4 4 5 4 3 4 3 3 3 2 2 4 5 5 5 6 6 7 8 8 9 10 10 11 11
3 2 3 4 4 5 5 4 5 5 4 5 5 4 5 5 4 4 4 4 5 4 4 3 2 2 2 2 1 3 3 4 5 5 5 6 7 8 8 9 9 9 10
3 3 4 4 4 4 4 5 4 4 4 4 4 5 5 4 4 4 4 5 5 5 4 3 3 1 1 1 0 2 2 3 4 4 4 5 5 6 7 7 8 8 8
3 3 3 3 4 4 4 4 4 3 4 4 4 4 5 4 3 4 4 4 5 5 4 2 2 1 1 2 1 2 2 3 4 4 4 4 5 5 6 7 7 8 8
3 3 3 3 3 3 3 3 4 3 4 4 4 4 4 5 5 4 4 4 4 4 4 3 2 2 2 2 1 2 3 3 2 3 4 4 4 4 4 5 6 7 7
4 3 3 3 3 3 3 3 3 3 3 4 4 4 5 4 4 4 4 4 3 3 4 4 3 2 2 3 2 3 2 2 1 3 5 4 4 3 3 3 4 5 6
3 4 4 4 4 3 3 3 3 3 4 4 4 4 5 4 4 3 4 3 3 4 4 4 4 2 3 2 3 3 2 2 2 2 5 5 4 4 3 3 3 4 4
4 4 4 4 4 4 4 4 4 4 4 4 4 4 4 5 5 5 4 4 4 4 4 4 4 3 3 3 3 3 2 2 2 1 0 1 4 5 5 4 4 4 4
4 4 4 4 4 4 3 3 4 4 4 4 4 4 4 3 4 4 4 3 4 4 4 4 4 4 3 3 3 3 2 2 1 1 2 2 1 1 3 4 3 3 4
3 4 4 4 4 4 0 2 5 4 4 4 4 4 4 4 3 3 3 4 5 6 5 5 5 4 4 4 3 4 3 3 3 1 2 2 1 1 1 1 3 4 3
3 3 4 4 4 3 1 3 4 5 5 4 4 4 4 2 3 3 4 6 6 6 7 7 6 6 5 4 4 5 4 4 3 2 2 2 2 1 1 3 5 4 4
3 3 3 3 4 3 2 3 5 6 5 5 4 4 4 3 2 3 4 4 5 5 6 6 5 5 4 3 4 5 4 4 4 3 2 3 3 2 1 2 6 5 4
3 3 3 3 3 3 2 3 5 5 4 5 5 4 4 4 2 2 4 4 4 4 4 4 4 3 2 3 4 4 4 4 4 3 2 3 3 2 2 2 4 7 6
3 3 3 3 3 3 2 3 5 4 4 5 4 4 4 3 2 3 4 5 5 4 4 4 4 4 5 4 5 5 5 5 4 3 2 3 3 2 2 2 2 4 4
Wind_Direction
63 61 53 21 352 26 140 109 60 76 78 166 190 164 166 140 209 199 154 154 170 189 200 200 200 203 207 207 212 213 213 214 212 212 212 211 211 207 208 207 209 208 207
78 41 64 357 357 354 21 21 99 151 229 342 180 125 219 180 182 224 190 162 165 174 185 192 197 200 203 204 208 209 210 213 214 209 206 206 206 205 204 204 206 209 209
125 298 358 299 16 23 44 237 199 210 213 206 176 195 210 197 185 203 211 203 170 166 173 184 189 196 206 216 218 211 209 210 212 207 205 203 203 204 205 204 204 203 204
250 270 292 321 311 277 262 255 244 230 211 242 238 234 201 185 201 202 206 206 197 174 170 175 190 200 212 227 226 219 213 211 209 205 208 209 206 206 208 209 211 206 205
239 259 277 310 278 278 281 286 296 275 251 248 240 227 222 210 206 206 204 216 209 213 205 170 184 201 212 228 231 224 218 217 211 207 211 211 209 210 212 211 210 210 210
245 267 259 265 279 278 287 307 305 287 270 258 262 266 243 226 220 214 217 219 220 228 234 229 205 198 201 218 230 228 222 214 208 210 214 214 212 212 213 211 211 211 212
256 265 282 269 272 273 279 271 261 252 257 249 243 246 243 230 220 218 222 236 233 231 233 234 244 244 196 194 209 218 217 214 210 211 215 217 216 214 213 213 214 215 216
254 252 263 267 269 265 260 261 259 267 265 252 262 257 239 219 211 218 216 224 242 241 231 230 232 235 252 212 176 194 209 218 217 215 216 217 218 217 215 215 217 219 220
252 267 264 270 274 267 260 261 260 258 261 260 259 267 267 259 253 209 217 222 229 240 244 242 230 223 231 231 196 184 199 213 221 223 222 218 215 214 215 218 219 219 220
248 253 257 263 268 269 269 265 267 268 264 264 250 251 266 282 272 246 227 224 225 235 250 258 239 217 225 227 207 174 190 204 216 224 224 221 217 215 216 219 221 221 221
249 256 255 259 261 263 264 273 281 275 265 272 273 263 259 245 247 254 255 254 249 241 240 248 251 241 229 231 225 185 181 199 211 220 226 224 219 218 220 222 223 225 224
242 249 257 264 264 267 263 261 264 261 267 275 277 272 263 259 245 247 256 256 258 258 256 252 247 237 232 229 216 153 175 194 208 218 222 223 223 222 220 220 221 224 225
246 248 260 259 265 264 265 263 260 271 263 264 268 274 269 264 260 256 257 263 265 254 250 241 240 244 243 232 203 153 179 192 208 216 221 226 227 226 225 223 222 222 225
256 259 257 256 260 263 264 259 259 261 265 267 270 272 269 263 254 251 252 260 263 252 237 244 247 249 266 257 91 187 197 187 202 215 222 227 229 226 225 224 224 222 225
251 248 253 257 263 264 263 260 261 266 265 262 260 255 261 259 247 246 245 249 259 260 254 231 244 249 257 258 67 240 228 163 185 208 218 225 226 225 225 222 218 218 221
264 261 261 260 262 261 259 259 257 259 263 266 265 260 262 260 255 250 253 253 257 263 272 274 259 269 286 267 154 254 246 164 194 203 213 220 222 221 223 223 217 215 216
251 253 254 257 261 265 265 265 268 262 261 265 268 260 258 269 261 251 247 247 247 251 252 259 263 261 247 264 252 255 246 231 189 174 191 204 209 212 216 215 211 206 204
244 245 247 249 257 262 261 259 261 264 265 265 270 274 271 262 260 260 254 247 244 241 238 248 249 245 243 249 250 256 255 253 243 155 171 181 186 190 196 197 198 198 198
241 242 240 247 256 261 255 256 260 264 265 262 262 263 268 267 264 262 256 245 237 234 234 237 240 240 247 256 248 243 247 259 260 163 167 172 168 168 171 175 182 178 181
239 244 243 245 249 252 251 255 257 260 260 263 261 258 262 262 255 251 244 239 235 235 229 235 234 233 235 247 250 248 246 243 277 282 329 187 170 176 169 162 169 173 180
234 237 244 247 249 247 251 263 264 256 252 258 259 254 251 255 275 259 255 239 231 231 229 231 232 234 233 243 244 247 253 259 257 283 279 261 206 204 167 160 169 175 182
243 239 240 248 253 255 332 283 270 265 253 253 255 253 246 231 230 236 255 259 252 239 239 240 241 242 237 245 249 245 243 249 257 256 279 280 247 238 180 127 110 135 163
245 247 249 251 253 255 208 252 265 261 251 251 252 250 253 235 211 234 226 229 242 250 250 245 243 246 240 239 241 240 239 245 254 238 262 273 259 234 192 113 126 141 159
256 254 255 256 253 244 201 238 262 247 250 248 244 242 242 244 233 232 231 233 234 232 233 234 238 246 250 247 243 247 241 230 234 220 222 255 251 249 225 139 143 154 165
254 255 248 249 254 248 218 240 259 248 243 246 240 235 232 233 203 225 226 234 240 236 217 219 236 245 264 258 257 247 236 231 238 233 223 250 249 251 240 205 152 158 164
250 259 258 258 254 255 217 228 251 250 246 241 231 226 205 217 187 198 222 231 236 238 234 207 205 212 220 223 232 242 246 242 240 239 203 229 242 252 251 218 198 180 177
Height
1540 1540 1540 1540 1540 1540 1540 1539 1539 1539 1539 1540 1540 1540 1541 1541 1541 1542 1542 1542 1542 1542 1543 1543 1543 1543 1544 1544 1545 1545 1546 1546 1547 1548 1549 1550 1551 1551 1552 1553 1555 1556 1557
1540 1540 1540 1540 1540 1540 1540 1540 1540 1540 1540 1540 1540 1540 1540 1541 1541 1541 1542 1542 1541 1541 1542 1542 1542 1542 1542 1542 1543 1543 1544 1544 1545 1546 1547 1548 1549 1550 1551 1552 1553 1554 1555
1539 1540 1540 1540 1540 1540 1539 1539 1540 1540 1539 1540 1540 1540 1539 1540 1540 1540 1541 1541 1541 1541 1540 1540 1541 1541 1541 1541 1541 1542 1542 1542 1543 1544 1545 1546 1547 1548 1549 1550 1550 1551 1552
1539 1539 1540 1539 1539 1539 1539 1539 1539 1539 1539 1539 1539 1539 1539 1538 1539 1539 1540 1540 1540 1540 1540 1539 1540 1540 1540 1539 1539 1540 1540 1540 1541 1541 1542 1543 1544 1545 1546 1547 1548 1549 1550
1538 1538 1539 1538 1538 1538 1538 1538 1538 1538 1538 1538 1538 1538 1538 1538 1538 1538 1538 1539 1539 1539 1539 1538 1538 1538 1538 1538 1538 1538 1538 1538 1538 1539 1540 1541 1542 1543 1544 1544 1545 1546 1547
1537 1537 1538 1537 1537 1537 1537 1537 1536 1536 1536 1537 1537 1537 1537 1536 1536 1537 1537 1537 1537 1537 1538 1538 1537 1537 1536 1536 1536 1536 1536 1536 1536 1537 1537 1538 1539 1540 1541 1542 1543 1543 1545
1536 1536 1536 1536 1536 1536 1535 1535 1535 1535 1535 1535 1535 1535 1535 1535 1535 1535 1535 1535 1536 1536 1536 1536 1536 1536 1535 1534 1534 1534 1534 1534 1534 1535 1535 1536 1536 1537 1538 1539 1540 1541 1542
1534 1535 1534 1534 1534 1534 1533 1533 1533 1534 1534 1534 1534 1534 1533 1534 1533 1533 1533 1533 1534 1534 1534 1534 1533 1533 1533 1533 1532 1532 1532 1533 1533 1533 1533 1533 1534 1534 1535 1536 1537 1538 1539
1532 1532 1532 1532 1532 1532 1532 1531 1531 1532 1532 1532 1532 1532 1531 1531 1531 1532 1531 1531 1531 1531 1532 1532 1532 1531 1531 1531 1531 1530 1530 1531 1531 1530 1531 1531 1531 1532 1532 1533 1534 1535 1535
1530 1530 1530 1530 1530 1530 1530 1530 1530 1530 1530 1530 1530 1529 1529 1529 1530 1530 1530 1530 1529 1529 1530 1530 1530 1529 1529 1529 1529 1528 1528 1528 1528 1528 1528 1528 1529 1529 1529 1530 1531 1532 1532
1528 1528 1528 1528 1528 1528 1528 1527 1527 1527 1527 1528 1528 1528 1527 1527 1527 1527 1527 1528 1528 1528 1528 1527 1528 1528 1527 1527 1527 1526 1526 1526 1526 1526 1526 1526 1526 1526 1526 1527 1527 1528 1529
1527 1526 1526 1526 1526 1526 1525 1525 1525 1525 1525 1525 1525 1525 1525 1525 1525 1525 1525 1525 1525 1526 1525 1525 1525 1525 1525 1525 1525 1524 1524 1524 1524 1523 1523 1523 1523 1523 1524 1524 1524 1525 1526
1525 1524 1524 1523 1523 1523 1523 1522 1522 1522 1522 1522 1522 1522 1522 1522 1522 1522 1522 1522 1522 1522 1522 1522 1523 1523 1523 1523 1522 1521 1521 1521 1521 1521 1520 1520 1521 1521 1521 1521 1522 1522 1523
1522 1521 1521 1521 1520 1520 1520 1520 1520 1520 1519 1519 1519 1518 1519 1519 1519 1519 1520 1520 1519 1519 1520 1520 1520 1520 1520 1520 1520 1519 1519 1519 1518 1518 1518 1518 1518 1518 1518 1519 1519 1520 1520
1519 1519 1518 1518 1518 1517 1517 1517 1517 1516 1516 1516 1516 1515 1516 1516 1516 1516 1516 1517 1518 1516 1516 1517 1518 1518 1518 1517 1516 1516 1516 1516 1516 1516 1515 1515 1514 1515 1515 1515 1516 1516 1517
1516 1516 1516 1516 1515 1515 1514 1514 1514 1513 1513 1513 1512 1512 1512 1513 1513 1513 1513 1513 1514 1514 1514 1514 1515 1515 1515 1515 1514 1514 1514 1513 1513 1513 1512 1512 1511 1512 1512 1512 1513 1513 1514
1513 1513 1513 1513 1513 1512 1512 1511 1511 1511 1510 1510 1510 1509 1509 1509 1509 1510 1510 1510 1510 1511 1510 1511 1512 1512 1511 1512 1512 1512 1512 1511 1511 1510 1509 1509 1509 1509 1509 1509 1510 1510 1511
1511 1511 1510 1510 1510 1510 1509 1509 1508 1508 1508 1507 1507 1507 1506 1506 1506 1506 1506 1506 1507 1507 1508 1508 1509 1509 1509 1509 1509 1509 1509 1509 1509 1508 1507 1507 1507 1507 1507 1507 1507 1507 1508
1507 1508 1508 1507 1507 1507 1506 1506 1506 1505 1505 1505 1504 1504 1503 1503 1503 1503 1503 1503 1504 1504 1505 1505 1506 1506 1507 1507 1507 1507 1507 1506 1507 1506 1505 1504 1504 1504 1504 1504 1505 1505 1506
1504 1505 1505 1504 1504 1504 1504 1503 1503 1502 1502 1502 1502 1501 1501 1500 1500 1500 1500 1500 1501 1501 1502 1502 1503 1504 1504 1504 1505 1505 1505 1505 1504 1504 1503 1503 1502 1502 1502 1502 1502 1503 1503
1502 1502 1502 1501 1501 1502 1501 1501 1501 1500 1499 1499 1499 1498 1498 1497 1497 1497 1498 1498 1498 1499 1500 1500 1501 1501 1502 1502 1502 1502 1502 1502 1502 1502 1501 1501 1501 1500 1500 1500 1500 1500 1501
1499 1499 1499 1499 1498 1499 1498 1498 1497 1497 1497 1496 1496 1495 1495 1494 1494 1494 1494 1494 1495 1496 1497 1497 1498 1498 1498 1499 1499 1500 1500 1500 1499 1500 1499 1499 1499 1499 1498 1498 1498 1498 1498
1497 1496 1496 1496 1495 1495 1495 1495 1494 1494 1493 1493 1493 1492 1492 1492 1491 1491 1491 1491 1492 1492 1493 1494 1495 1495 1495 1495 1496 1496 1496 1496 1496 1497 1497 1497 1498 1497 1497 1496 1496 1496 1496
1494 1494 1493 1493 1492 1492 1492 1491 1491 1490 1490 1490 1489 1489 1489 1488 1488 1488 1488 1489 1489 1489 1490 1491 1491 1492 1492 1492 1493 1493 1493 1494 1494 1494 1495 1495 1495 1496 1495 1495 1494 1494 1494
1492 1491 1491 1490 1489 1489 1489 1488 1487 1487 1486 1486 1486 1486 1485 1485 1485 1485 1486 1486 1486 1487 1487 1488 1488 1489 1489 1489 1490 1491 1491 1492 1492 1492 1492 1493 1493 1493 1493 1493 1492 1492 1492
1489 1489 1488 1487 1487 1486 1485 1485 1484 1483 1483 1482 1482 1482 1482 1482 1482 1482 1483 1483 1483 1484 1485 1485 1485 1486 1486 1486 1487 1487 1488 1489 1489 1489 1489 1490 1490 1491 1491 1491 1491 1490 1490